Location: Recife
(8.0585°S, 34.8848°W)
Time: 11:55:43
(UTC-03:00)

Transit 4A - Pass Details

Date: 23 April 2026
Orbit: 861 x 980 km, 66.8° (Epoch: 12 May)

Event Time Altitude Azimuth Distance (km) Brightness Sun altitude
Rises 23:56:17 0° 316° (NW) 3,643 - -79.6°
Reaches altitude 10° 23:59:15 10° 304° (NW) 2,687 - -78.9°
Maximum altitude 00:04:26 27° 248° (WSW) 1,727 - -77.7°
Drops below altitude 10° 00:09:32 10° 192° (SSW) 2,636 - -76.6°
Sets 00:12:27 0° 180° (S) 3,562 - -75.9°
